STARLINK-5989, 56781

Orbit data source: Space-Track

STARLINK-5989, 56781 is a payload satellite owned by SpaceX/Seattle (US) in LEO that was launched on Wed, 31 May 2023 UTC via an FALCON 9 launch vehicle from the Air Force Western Test Range (AFWTR). Payload-class satellites include a variety of spacecraft equipped with specific instruments for various scientific and technological missions. These include communications satellites like Starlink; space stations such as the ISS; scientific satellites like the Hubble; Earth observation satellites from companies like Planet Labs, Umbra, and HawkEye 360; GPS; miniature CubeSats for education and research; and military/defense satellites.

Loading next visibility...
Identifier
56781, 2023-078Q
Orbit
LEO
Country
Flag of USUS
Related business
Manufacturer
SpaceX/Seattle
Mission
Operational Commercial Communications
Bus & Motor
STARLINK, Unknown motor
Mass
305 kg wet, ~290 kg dry
Launch date (UTC)
2023-05-31 (3 years ago)
Launch vehicle
FALCON 9
Launch site
Air Force Western Test Range (AFWTR)
Object type
Payload
Rocket body
Debris
Shape & HBR
Box + 1 Pan, 10.1 m
Radar Cross Section
11.087 m², Large (>1 m²)

Expand to show TLE details & history
Last TLE update: 2 days ago

TLE from 2 days ago
0 STARLINK-5989
1 56781U 23078Q   26171.20155070 -.00002067  00000-0 -16563-3 0  9995
2 56781  70.0036  86.0709 0002603 218.9610 141.1362 14.98309410168038
Epoch: 2026-06-20T04:50Z
TLE epoch observation values (Epoch: 2026-06-20T04:50:13.980Z)
Latitude
-0.00001°
Longitude
105.09308°
Altitude
575.953 km
Speed
7.572 km/s
True Right ascension
05h 44m 17s
True Declination
0° 00' 00"
Sunlit
Object was in daylight at epoch
Visualization orbit readout
Latitude
Unknown
Longitude
Unknown
Altitude
Unknown
Speed
Unknown
Apparent Right ascension
Unknown
Apparent Declination
Unknown
Sunlit
N/A
Visualization observer readout
Local Sidereal Time
21:34:02
Azimuth
Unknown
Elevation
Unknown
Doppler factor
Unknown
Orbital elements
Apogee altitude
571.876 km
Perigee altitude
568.259 km
Semi-major axis
6,948.204 km
Eccentricity
0.00026
Inclination
70.0036°
RAAN
86.0709°
Arg. of periapsis
218.961°
True anomaly
141.15491°
Mean anomaly
141.1362°
Eccentric anomaly
141.14556°
Mean motion
3.74744 °/min
Orbital period
96.07 mins
BSTAR
-0.00016563
Loading maneuver chart data...
Computing Atmospheric mass density...
Loading historical data...
Loading historical data...
Loading historical data...
Loading historical data...
Loading historical data...
Loading historical data...
Loading historical data...

Documentation

Showing up to 5 results
|